• Join FlightAware (Why Join?)
  • Login
  • US Flag GB Flag 
22:36 EDT


 

Airport Tracker/Info


-or-


 

Live Flight TrackerFlight Track Log ✈ USC105 ✈ 09-Apr-2013 ✈ KYIP - KLCK

Flight Track Log - Related Links

Times and Time Zones

All times are in EDT time to prevent confusion due to time zone crossing. See the USC105 flight status page for this flight to view local times or setup timezone preferences in your user account.

Time Position Orientation Groundspeed Altitude Reporting Facility
EDT Latitude Longitude Course Direction KTS MPH feet Rate Location/Type
07:06 42.2172 -83.5575 222° Southwest 117 135 1,800  Level FAA TRACON SMA TRACON (SMA)
07:06 42.2097 -83.5669 223° Southwest 119 137 2,100 1,020 Climbing FAA TRACON SMA TRACON (SMA)
07:06 42.2028 -83.5775 228° Southwest 122 140 2,500 1,200 Climbing FAA TRACON SMA TRACON (SMA)
07:07 42.1936 -83.5908 227° Southwest 124 143 2,900 720 Climbing FAA TRACON SMA TRACON (SMA)
07:07 42.1858 -83.6019 227° Southwest 133 153 3,000 120 Climbing FAA TRACON SMA TRACON (SMA)
07:07 42.1756 -83.6153 224° Southwest 165 190 3,000  Level FAA TRACON SMA TRACON (SMA)
07:08 42.1603 -83.6264 208° Southwest 170 196 3,000  Level FAA TRACON SMA TRACON (SMA)
07:08 42.1450 -83.6272 182° South 186 214 3,000  Level FAA TRACON SMA TRACON (SMA)
07:08 42.1297 -83.6236 170° South 181 208 3,000  Level FAA TRACON SMA TRACON (SMA)
07:09 42.1128 -83.6147 159° South 173 199 3,000 300 Level FAA TRACON SMA TRACON (SMA)
07:09 42.0983 -83.6094 165° South 173 199 3,200 600 Climbing FAA TRACON SMA TRACON (SMA)
07:09 42.0839 -83.6058 169° South 171 197 3,400 600 Climbing FAA TRACON SMA TRACON (SMA)
07:10 42.0667 -83.6011 168° South 166 191 3,600 600 Climbing FAA TRACON SMA TRACON (SMA)
07:10 42.0531 -83.5975 169° South 164 189 3,800 420 Climbing FAA TRACON SMA TRACON (SMA)
07:10 42.0392 -83.5931 167° South 165 190 3,900 420 Climbing FAA TRACON SMA TRACON (SMA)
07:11 42.0219 -83.5867 165° South 166 191 4,100 600 Climbing FAA TRACON SMA TRACON (SMA)
07:11 42.0086 -83.5828 168° South 162 186 4,300 720 Climbing FAA TRACON SMA TRACON (SMA)
07:11 41.9925 -83.5772 166° South 161 185 4,600 600 Climbing FAA TRACON SMA TRACON (SMA)
07:12 41.9794 -83.5733 168° South 162 186 4,700 420 Climbing FAA TRACON SMA TRACON (SMA)
07:12 41.9625 -83.5681 167° South 165 190 4,900 600 Climbing FAA TRACON SMA TRACON (SMA)
07:12 41.9519 -83.5639 164° South 163 188 5,100 720 Climbing FAA TRACON SMA TRACON (SMA)
07:13 41.9342 -83.5589 168° South 161 185 5,400 720 Climbing FAA TRACON SMA TRACON (SMA)
07:13 41.9214 -83.5547 166° South 160 184 5,600 600 Climbing FAA TRACON SMA TRACON (SMA)
07:13 41.9058 -83.5500 167° South 159 183 5,800 600 Climbing FAA TRACON SMA TRACON (SMA)
07:14 41.8903 -83.5450 167° South 160 184 6,000 600 Climbing FAA TRACON SMA TRACON (SMA)
07:14 41.8781 -83.5411 167° South 160 184 6,200 600 Climbing FAA TRACON SMA TRACON (SMA)
07:14 41.8614 -83.5364 168° South 162 186 6,400 420 Climbing FAA TRACON SMA TRACON (SMA)
07:15 41.8475 -83.5319 167° South 168 193 6,500 600 Climbing FAA TRACON SMA TRACON (SMA)
07:15 41.8311 -83.5264 166° South 170 196 6,800 540 Climbing FAA TRACON SMA TRACON (SMA)
07:15 41.8169 -83.5231 170° South 172 198 6,900 120 Climbing FAA TRACON SMA TRACON (SMA)
07:16 41.7994 -83.5172 166° South 178 205 6,900  Level FAA TRACON SMA TRACON (SMA)
07:16 41.7836 -83.5119 166° South 185 213 6,900  Level FAA TRACON SMA TRACON (SMA)
07:16 41.7642 -83.5061 167° South 185 213 6,900  Level FAA TRACON SMA TRACON (SMA)
07:17 41.7486 -83.5017 168° South 184 212 6,900  Level FAA TRACON SMA TRACON (SMA)
07:17 41.7331 -83.4969 167° South 185 213 6,900  Level FAA TRACON SMA TRACON (SMA)
07:17 41.7136 -83.4906 166° South 186 214 6,900  Level FAA TRACON SMA TRACON (SMA)
07:18 41.6981 -83.4861 168° South 187 215 6,900  Level FAA TRACON SMA TRACON (SMA)
07:18 41.6822 -83.4811 167° South 187 215 6,900  Level FAA TRACON SMA TRACON (SMA)
07:18 41.6669 -83.4769 168° South 186 214 6,900  Level FAA TRACON SMA TRACON (SMA)
07:19 41.6475 -83.4703 166° South 186 214 6,900  Level FAA TRACON SMA TRACON (SMA)
07:19 41.6319 -83.4650 166° South 187 215 6,900  Level FAA TRACON SMA TRACON (SMA)
07:19 41.6164 -83.4603 167° South 187 215 6,900  Level FAA TRACON SMA TRACON (SMA)
07:20 41.5969 -83.4547 168° South 185 213 6,900  Level FAA TRACON SMA TRACON (SMA)
07:20 41.5811 -83.4500 167° South 186 214 6,900  Level FAA TRACON SMA TRACON (SMA)
07:20 41.5614 -83.4444 168° South 187 215 6,900  Level FAA TRACON SMA TRACON (SMA)
07:21 41.5458 -83.4397 167° South 187 215 6,900  Level FAA TRACON SMA TRACON (SMA)
07:21 41.5300 -83.4350 167° South 188 216 6,900  Level FAA TRACON SMA TRACON (SMA)
07:21 41.5103 -83.4286 166° South 188 216 6,900  Level FAA TRACON SMA TRACON (SMA)
07:22 41.4947 -83.4236 166° South 188 216 6,900  Level FAA TRACON SMA TRACON (SMA)
07:22 41.4792 -83.4192 168° South 187 215 6,900  Level FAA TRACON SMA TRACON (SMA)
07:22 41.4597 -83.4133 167° South 186 214 6,900  Level FAA TRACON SMA TRACON (SMA)
07:23 41.4442 -83.4089 168° South 185 213 6,900  Level FAA TRACON SMA TRACON (SMA)
07:23 41.4286 -83.4036 166° South 187 215 6,900  Level FAA TRACON SMA TRACON (SMA)
07:23 41.4092 -83.3978 167° South 186 214 6,900  Level FAA TRACON SMA TRACON (SMA)
07:24 41.3936 -83.3933 168° South 185 213 6,900  Level FAA TRACON SMA TRACON (SMA)
07:24 41.3783 -83.3883 166° South 186 214 6,900  Level FAA TRACON SMA TRACON (SMA)
07:24 41.3628 -83.3842 169° South 185 213 6,900  Level FAA TRACON SMA TRACON (SMA)
07:25 41.3433 -83.3781 167° South 186 214 6,900  Level FAA TRACON SMA TRACON (SMA)
07:25 41.3356 -83.3758 168° South 185 213 6,900  Level FAA TRACON SMA TRACON (SMA)
07:26 41.3356 -83.3758 209° Southwest 185 213 6,900  Level FAA TRACON SMA TRACON (SMA)
07:28 41.2491 -83.3498 167° South  Level Estimated
07:35 40.9217 -83.2519 167° South  Level Estimated
07:36 40.8749 -83.2380 167° South  Level Estimated
07:37 40.8282 -83.2241 167° South  Level Estimated
07:38 40.7814 -83.2102 167° South  Level Estimated
07:39 40.7346 -83.1964 167° South  Level Estimated
07:40 40.6878 -83.1825 167° South  Level Estimated
07:40 40.5653 -83.1447 167° South 181 208 6,900  Level Indianapolis Center
07:41 40.6410 -83.1687 167° South  Level Estimated
07:41 40.5158 -83.1306 168° South 182 209 6,900  Level Indianapolis Center
07:42 40.5942 -83.1550 167° South  Level Estimated
07:42 40.4669 -83.1164 168° South 181 208 6,900  Level Indianapolis Center
07:43 40.5475 -83.1412 167° South  Level Estimated
07:43 40.4225 -83.1061 170° South 183 211 6,600  Level Indianapolis Center
07:44 40.5007 -83.1274 167° South  Level Estimated
07:44 40.4158 -83.1014 152° Southeast 184 212 6,500  Level Indianapolis Center
07:44 40.3692 -83.0889 168° South 198 228 6,000 -540 Descending Indianapolis Center
07:45 40.4539 -83.1137 167° South  Level Estimated
07:45 40.3525 -83.0825 164° South 194 223 6,000  Level Indianapolis Center
07:45 40.3136 -83.0744 171° South 186 214 6,000  Level Indianapolis Center
07:46 40.4071 -83.1000 167° South  Level Estimated
07:46 40.3025 -83.0678 155° Southeast 187 215 6,000  Level Indianapolis Center
07:46 40.2667 -83.0578 168° South 174 200 6,000  Level Indianapolis Center
07:47 40.2553 -83.0531 162° South 178 205 6,000  Level Indianapolis Center
07:47 40.2217 -83.0444 169° South 168 193 6,000  Level Indianapolis Center
07:48 40.2094 -83.0400 164° South 172 198 6,000  Level Indianapolis Center
07:48 40.1764 -83.0311 168° South 164 189 6,000  Level Indianapolis Center
07:49 40.1642 -83.0267 164° South 168 193 6,000  Level Indianapolis Center
07:49 40.1333 -83.0178 168° South 157 181 6,000  Level Indianapolis Center
07:50 40.1219 -83.0139 165° South 161 185 6,000  Level Indianapolis Center
07:50 40.0922 -83.0075 171° South 157 181 6,000  Level Indianapolis Center
07:51 40.0797 -83.0019 161° South 157 181 6,000 -600 Level Indianapolis Center
07:51 40.0453 -82.9914 167° South 172 198 5,400 -1,020 Descending Indianapolis Center
07:52 40.0339 -82.9842 154° Southeast 162 186 5,000 -1,380 Descending Indianapolis Center
07:52 39.9967 -82.9639 157° South 198 228 4,000 -1,500 Descending Indianapolis Center
07:53 39.9839 -82.9539 149° Southeast 180 207 3,500 -1,440 Descending Indianapolis Center
07:53 39.9486 -82.9339 157° South 194 223 2,600 -1,080 Descending Indianapolis Center
07:54 39.9322 -82.9250 157° South 192 221 2,400 -600 Descending Indianapolis Center
07:54 39.9044 -82.9072 154° Southeast 172 198 2,000 -600 Descending Indianapolis Center
07:55 39.8883 -82.8992 159° South 185 213 1,800 -600 Descending Indianapolis Center
07:55 39.8592 -82.8967 176° South 152 175 1,400 -600 Descending Indianapolis Center
07:56 39.8486 -82.8947 172° South 156 180 1,200 -600 Descending Indianapolis Center
07:56 39.8286 -82.9122 214° Southwest 115 132 800 -240 Descending Indianapolis Center
07:57 39.8153 -82.9081 167° South 140 161 1,000 420 Climbing Indianapolis Center
07:59 39.8000 -82.9167 159° South  Level FlightAware Approximate